STARLINK-34438

Last updated on Mon Oct 20 2025 00:02:07 GMT+0000 (Coordinated Universal Time)

1 65876U 25223Y 25292.25002315 -.01906082 00000+0 -21780-1 0 9990 2 65876 53.1598 234.9265 0001328 87.4264 46.2540 15.64689829 3733
UTC large
Height (km)
Speed (km/s)
/
Latitude / Longitude
Inclination (degrees)
Orbital Period (minutes)
Azimuth
Elevation
Range (km)
Doppler Factor

Next 0 passes for location: London (51.5072 / 0.1276)

Sorry there are no passes over London.